Regional Weather Roundup
Issued by NWS

Home | Current Version | Previous Version | Graphics & Text | Print | Product List | Glossary On
Versions: 1 2 3 4 5 6 7 8 9 10 11 12 13 14 15 16 17 18 19 20 21 22 23 24 25 26 27 28 29 30 31 32 33 34 35 36 37 38 39 40 41 42 43 44 45 46 47 48 49 50
842
ASUS43 KOAX 240010
RWRNE

WEATHER ROUNDUP FOR NEBRASKA
NATIONAL WEATHER SERVICE OMAHA NE
700 PM CDT SAT SEP 23 2017

NOTES: SATELLITE DATA IS BEING USED TO AUGMENT CLOUD COVER ABOVE
       12000 FEET.
       "FAIR" INDICATES FEW OR NO CLOUDS BELOW 12,000 FEET WITH NO
       SIGNIFICANT WEATHER AND/OR OBSTRUCTIONS TO VISIBILITY.


NEZ001>004-019>022-054>056-240100-
NEBRASKA PANHANDLE

CITY           SKY/WX    TMP DP  RH WIND       PRES   REMARKS
SCOTTSBLUFF    LGT RAIN  47  43  86 N7        30.01R FOG
6HR MIN TEMP:  46; 6HR MAX TEMP:  49; 6HR PCP:  0.02;

ALLIANCE       CLOUDY    46  44  93 N10       30.00R
6HR MIN TEMP:  45; 6HR MAX TEMP:  47; 6HR PCP:  0.07;

CHADRON        CLOUDY    46  44  93 NE9       30.02R FOG
6HR MIN TEMP:  45; 6HR MAX TEMP:  47; 6HR PCP:  0.10;

GORDON         CLOUDY    47  44  91 N8        30.00R
6HR MIN TEMP:  45; 6HR MAX TEMP:  47; 6HR PCP:  0.20;

KIMBALL        HVY RAIN  44  44 100 N10       30.01R
SIDNEY         LGT RAIN  46  45  96 N12       29.99R FOG
6HR MIN TEMP:  46; 6HR MAX TEMP:  49; 6HR PCP:  0.05;

$$

NEZ057>060-069>072-079>082-240100-
SOUTHWEST NEBRASKA

CITY           SKY/WX    TMP DP  RH WIND       PRES   REMARKS
NORTH PLATTE   LGT RAIN  54  53  97 VRB5      29.90F
6HR MIN TEMP:  54; 6HR MAX TEMP:  60; 6HR PCP:  0.22;

IMPERIAL       LGT RAIN  57  54  89 NE12      29.90R
6HR MIN TEMP:  51; 6HR MAX TEMP:  62; 6HR PCP:  0.03;

LEXINGTON      CLOUDY    58  56  92 N6        29.89S
MCCOOK         CLOUDY    59  58  96 NE7       29.85F
6HR MIN TEMP:  59; 6HR MAX TEMP:  83; 6HR PCP:  0.32;

OGALLALA       LGT RAIN  57  54  89 N7        29.93S
$$

NEZ005>010-023>029-035>040-094-240100-
NORTH CENTRAL NEBRASKA

CITY           SKY/WX    TMP DP  RH WIND       PRES   REMARKS
VALENTINE      LGT RAIN  52  50  93 E9        30.01R
6HR MIN TEMP:  50; 6HR MAX TEMP:  53; 6HR PCP:  0.47;

AINSWORTH      RAIN      51  51 100 NW12      29.95F
BROKEN BOW     LGT RAIN  54  54 100 NE9       29.92F
6HR MIN TEMP:  54; 6HR MAX TEMP:  65; 6HR PCP:  0.79;

O`NEILL        RAIN      54  54 100 NW14      29.97R
ORD            LGT RAIN  56  53  90 N9        29.90F
6HR MIN TEMP:  56; 6HR MAX TEMP:  76; 6HR PCP:  0.41;

THEDFORD       LGT RAIN  52  51  95 NE12      29.96R
$$

NEZ041-046>049-061>064-073>077-083>087-240100-
SOUTH CENTRAL NEBRASKA

CITY           SKY/WX    TMP DP  RH WIND       PRES   REMARKS
GRAND ISLAND   CLOUDY    83  62  49 W10G22    29.87R
6HR MIN TEMP:  77; 6HR MAX TEMP:  90; 6HR PCP: TRACE;

AURORA         PTCLDY    83  60  44 S13       29.85S
HASTINGS       MOCLDY    85  59  41 S12       29.86R
6HR MIN TEMP:  77; 6HR MAX TEMP:  88; 6HR PCP: TRACE;

HEBRON         CLEAR     86  59  39 S16       29.87S
HOLDREGE       LGT RAIN  60  58  93 N9G16     29.88S
KEARNEY        MOCLDY    63  61  94 N13G21    29.89S
YORK           PTCLDY    84  61  45 S16G23    29.86R
$$

NEZ011>018-030>034-042>045-240100-
NORTHEAST NEBRASKA

CITY           SKY/WX    TMP DP  RH WIND       PRES   REMARKS
NORFOLK        MOCLDY    82  64  54 S9        29.85R
6HR MIN TEMP:  82; 6HR MAX TEMP:  89; 6HR PCP: TRACE;

ALBION         CLOUDY    67  60  77 NW21G29   29.89R
BLAIR          CLEAR     86  62  44 SE10      29.90R
COLUMBUS       PTCLDY    84  65  52 SE9       29.85S
FREMONT        PTCLDY    85  62  45 SE9       29.88S
TEKAMAH        CLEAR     84  63  49 SE9       29.87R
6HR MIN TEMP:  84; 6HR MAX TEMP:  91;

WAYNE          MOCLDY    80  67  65 SE8       29.86R
$$

NEZ050>053-065>068-078-088>093-240100-
SOUTHEAST NEBRASKA

CITY           SKY/WX    TMP DP  RH WIND       PRES   REMARKS
LINCOLN        CLEAR     86  61  42 S15       29.87S
6HR MIN TEMP:  86; 6HR MAX TEMP:  93;

OMAHA EPPLEY   MOCLDY    87  62  43 SE16      29.89R
6HR MIN TEMP:  87; 6HR MAX TEMP:  92;

BEATRICE       CLEAR     86  62  44 S13G18    29.89S
FALLS CITY     CLEAR     85  64  49 S12       29.92R
6HR MIN TEMP:  85; 6HR MAX TEMP:  90;

NEBRASKA CITY  CLEAR     84  63  49 S14       29.93R
PLATTSMOUTH    CLEAR     85  64  47 S13G20    29.91S
$$

NEZ044-045-051>053-067-240100-
OMAHA AREA

CITY           SKY/WX    TMP DP  RH WIND       PRES   REMARKS
OMAHA EPPLEY   MOCLDY    87  62  43 SE16      29.89R
6HR MIN TEMP:  87; 6HR MAX TEMP:  92;

BLAIR          CLEAR     86  62  44 SE10      29.90R
FREMONT        PTCLDY    85  62  45 SE9       29.88S
MILLARD        CLEAR     89  64  43 SE12G22   29.89R
OFFUTT AFB     CLEAR     85  63  46 SE14      29.90R
PLATTSMOUTH    CLEAR     85  64  47 S13G20    29.91S
WAHOO          FAIR      85  58  39 S16G22    29.87S
$$




USA.gov is the U.S. government's official web portal to all federal, state and local government web resources and services.